[[{"header":{"parameterUnit":"m.s-1","parameterCategory":1,"la1":30.2991,"la2":30.254,"lo1":-89.0895,"lo2":-89.0444,"dy":0.0017,"dx":0.0017,"nx":28,"ny":28,"refTime":"2023-09-28T03:00:00:Z","depth":0,"parameterNumber":2,"parameterNumberName":"U-component_of_WINDS"},"data":[0,0,0,0,0,0,0,0,0,0,0,0,0,0,0,0,0,0,0,0,0,0,0,0,0,0,0,0,0,0,0,0,0,0,0,0,0,0,0,0,0,0,0,0,0,0,0,0,0,0,0,0,0,0,0,0,0,0,-5.0274,-5.0275,0,-5.0324,-5.0324,-5.0325,-5.0218,-5.0215,-5.0211,-5.0208,-5.0258,-5.0262,-5.0267,0,0,0,0,0,0,0,0,0,0,0,0,0,-5.0086,-5.009,-5.0274,-5.0275,-5.0275,-5.0324,-5.0324,-5.0325,-5.0219,-5.0215,-5.0211,-5.0207,-5.0256,-5.0261,-5.0267,0,0,0,0,0,0,0,0,0,0,0,0,0,-5.0155,-5.0091,-5.0274,-5.0228,-5.0225,-5.0324,-5.0325,-5.0325,-5.022,-5.0215,-5.0209,-5.0205,-5.0254,-5.0261,-5.0268,-5.0413,0,0,-5.0288,-5.0291,0,0,0,0,0,0,0,0,-5.0151,-5.0162,-5.0234,-5.0231,-5.0228,-5.026,-5.0276,-5.0355,-5.0221,-5.0222,-5.0208,-5.0202,-5.0262,-5.0268,-5.0289,-5.0415,-5.0417,-5.0289,-5.0293,-5.0296,-5.0298,0,0,0,0,0,0,0,-5.0146,-5.0159,-5.0294,-5.0235,-5.0231,-5.0205,-5.0209,-5.029,-5.027,-5.0221,-5.0213,-5.0221,-5.026,-5.0283,-5.0289,-5.0418,-5.0289,-5.0295,-5.0299,-5.0302,-5.0666,-5.0671,0,0,0,0,0,0,-5.0147,-5.0156,-5.0292,-5.0295,-5.0176,-5.0212,-5.0217,-5.0255,-5.0269,-5.0266,-5.0225,-5.0216,-5.0273,-5.0281,-5.0291,-5.046,-5.0296,-5.0302,-5.0306,-5.0661,-5.0667,-5.0673,0,0,0,0,0,0,-5.0144,-5.0161,-5.029,-5.0223,-5.0238,-5.0221,-5.0264,-5.0258,-5.0281,-5.0272,-5.0268,-5.0253,-5.027,-5.0281,-5.0383,-5.046,-5.0305,-5.0312,-5.0654,-5.0663,-5.067,-5.0802,0,0,0,0,0,0,-5.0139,-5.016,-5.0215,-5.0225,-5.0242,-5.0382,-5.0269,-5.0263,-5.0293,-5.0281,-5.0297,-5.0294,-5.0267,-5.0374,-5.039,-5.0467,-5.0317,-5.0647,-5.0658,-5.0668,-5.079,-5.0814,-5.0834,0,0,0,0,0,-5.0133,-5.025,-5.0218,-5.0235,-5.031,-5.0387,-5.0396,-5.0362,-5.03,-5.0355,-5.035,-5.0294,-5.0451,-5.0385,-5.0403,-5.0483,-5.0642,-5.0655,-5.0667,-5.0781,-5.0809,-5.0833,0,0,0,0,0,0,-5.0248,-5.025,-5.0215,-5.034,-5.0364,-5.0369,-5.0437,-5.0394,-5.0436,-5.0423,-5.0379,-5.0383,-5.0494,-5.0499,-5.0426,-5.0624,-5.0535,-5.0552,-5.0616,-5.0643,-5.0664,-5.0659,-5.0323,0,0,0,0,0,-5.0288,-5.035,-5.0349,-5.0459,-5.0473,-5.0454,-5.0486,-5.0458,-5.0481,-5.0491,-5.0492,-5.0517,-5.0571,-5.0608,-5.0658,-5.0792,-5.0793,-5.0856,-5.0878,-5.0895,-5.0909,-5.098,-5.1007,-5.0715,-5.0715,-5.0715,0,0,-5.0371,-5.038,-5.0422,-5.0482,-5.0498,-5.0563,-5.0463,-5.0536,-5.0583,-5.0501,-5.0597,-5.0601,-5.0625,-5.0744,-5.0796,-5.0751,-5.0991,-5.0912,-5.0926,-5.093,-5.0995,-5.1023,-5.1048,-5.0723,-5.0722,-5.072,0,0,-5.0554,-5.0569,-5.066,-5.0679,-5.0704,-5.0691,-5.0714,-5.0726,-5.0724,-5.0821,-5.0761,-5.0817,-5.0912,-5.0932,-5.0954,-5.1148,-5.1098,-5.1166,-5.1277,-5.1347,-5.1369,-5.139,-5.1457,-5.1481,-5.1181,-5.1181,-5.1181,0,-5.0653,-5.0749,-5.0713,-5.0791,-5.0819,-5.075,-5.0842,-5.0862,-5.0902,-5.0923,-5.0873,-5.0991,-5.1003,-5.1125,-5.1172,-5.1194,-5.1217,-5.1162,-5.1369,-5.1389,-5.1407,-5.1471,-5.1496,-5.1189,-5.1188,-5.1187,-5.1187,0,-5.0869,-5.0936,-5.1008,-5.1049,-5.1086,-5.1171,-5.1148,-5.1189,-5.116,-5.1152,-5.1251,-5.1263,-5.1314,-5.1341,-5.1313,-5.146,-5.1431,-5.1377,-5.1285,-5.1444,-5.1502,-5.1526,-5.12,-5.1197,-5.1195,-5.1193,0,0,-5.1122,-5.1144,-5.1171,-5.1188,-5.1213,-5.1264,-5.1347,-5.1397,-5.1433,-5.1464,-5.1531,-5.1615,-5.1564,-5.159,-5.1563,-5.1625,-5.1776,-5.1562,-5.1562,-5.1599,-5.1936,-5.1975,-5.2004,-5.1744,-5.1749,-5.1753,-5.1933,0,-5.1301,-5.1442,-5.1414,-5.1551,-5.1613,-5.155,-5.1621,-5.1644,-5.164,-5.1691,-5.1686,-5.1745,-5.1675,-5.169,-5.1749,-5.1745,-5.1842,-5.1732,-5.1804,-5.1807,-5.1796,-5.2035,-5.2075,-5.2245,-5.1956,-5.196,-5.1963,0,-5.1528,-5.1569,-5.1713,-5.1727,-5.1752,-5.1817,-5.1861,-5.1912,-5.1936,-5.1929,-5.1959,-5.1921,-5.2003,-5.1915,-5.2026,-5.1951,-5.198,-5.1983,-5.1989,-5.1991,-5.1892,-5.204,-5.2299,-5.2323,-5.1999,-5.1997,-5.1994,0,-5.1695,-5.1786,-5.1883,-5.1901,-5.1922,-5.1968,-5.1979,-5.1999,-5.2031,-5.207,-5.2091,-5.2139,-5.2165,-5.2204,-5.218,-5.2118,-5.2295,-5.2205,-5.2289,-5.229,-5.2326,-5.2323,-5.2589,-5.2351,-5.235,-5.235,-5.2349,0,-5.1896,-5.1986,-5.1959,-5.2018,-5.2117,-5.2085,-5.2184,-5.2187,-5.2206,-5.2265,-5.2215,-5.2271,-5.2238,-5.2292,-5.2275,-5.2368,-5.2381,-5.2377,-5.237,-5.2379,-5.2379,-5.2394,-5.2381,-5.2357,-5.2355,-5.2354,-5.2353,0,-5.2097,-5.2083,-5.2185,-5.2197,-5.2202,-5.2274,-5.2284,-5.2339,-5.2333,-5.2408,-5.2424,-5.2413,-5.2474,-5.2456,-5.2522,-5.251,-5.2629,-5.2609,-5.262,-5.2614,-5.2698,-5.269,-5.298,-5.3016,-5.2758,-5.276,-5.2762,0,-5.2225,-5.2292,-5.2312,-5.2348,-5.2363,-5.2422,-5.2455,-5.2427,-5.2463,-5.2497,-5.2549,-5.2606,-5.2649,-5.275,-5.2748,-5.2799,-5.2778,-5.2877,-5.2785,-5.2792,-5.2776,-5.2771,-5.2777,-5.2893,-5.2896,-5.2899,-5.2901,0,-5.2452,-5.2442,-5.2491,-5.2539,-5.258,-5.2617,-5.2648,-5.2681,-5.2655,-5.2698,-5.276,-5.2795,-5.2863,-5.292,-5.2966,-5.2977,-5.2934,-5.2931,-5.2952,-5.296,-5.2962,-5.296,-5.2666,-5.2923,-5.2921,-5.2919,-5.2918,-5.2917,-5.2618,-5.2675,-5.2697,-5.2754,-5.2776,-5.2807,-5.286,-5.286,-5.2912,-5.2964,-5.2946,-5.3017,-5.3041,-5.3099,-5.3116,-5.3171,-5.3133,-5.3165,-5.3173,-5.318,-5.319,-5.2957,-5.318,-5.3179,-5.3179,-5.3178,-5.3178,0,-5.2839,-5.2851,-5.2905,-5.2951,-5.2996,-5.2955,-5.2988,-5.3028,-5.3091,-5.3118,-5.3162,-5.3234,-5.329,-5.3293,-5.3345,-5.3389,-5.3371,-5.3403,-5.3398,-5.3401,-5.3222,-5.3197,-5.3417,-5.3417,-5.3417,-5.3417,-5.3417,-5.3417,-5.296,-5.3053,-5.3047,-5.3151,-5.3162,-5.3231,-5.3254,-5.3282,-5.3303,-5.3385,-5.3431,-5.3434,-5.3451,-5.3504,-5.3554,-5.3553,-5.3573,-5.3613,-5.3605,-5.3437,-5.3413,-5.339,-5.3366,-5.3618,-5.3619,-5.3778,-5.378,-5.3781]},{"header":{"parameterUnit":"m.s-1","parameterCategory":1,"la1":30.2991,"la2":30.254,"lo1":-89.0895,"lo2":-89.0444,"dy":0.0017,"dx":0.0017,"nx":28,"ny":28,"refTime":"2023-09-28T03:00:00:Z","depth":0,"parameterNumber":3,"parameterNumberName":"V-component_of_WINDS"},"data":[0,0,0,0,0,0,0,0,0,0,0,0,0,0,0,0,0,0,0,0,0,0,0,0,0,0,0,0,0,0,0,0,0,0,0,0,0,0,0,0,0,0,0,0,0,0,0,0,0,0,0,0,0,0,0,0,0,0,1.1394,1.1395,0,1.1468,1.1469,1.147,1.1485,1.1485,1.1484,1.1484,1.1558,1.1561,1.1563,0,0,0,0,0,0,0,0,0,0,0,0,0,1.1263,1.1266,1.1394,1.1395,1.1396,1.1468,1.1469,1.147,1.1485,1.1485,1.1484,1.1483,1.1558,1.1561,1.1564,0,0,0,0,0,0,0,0,0,0,0,0,0,1.1327,1.1266,1.1393,1.1412,1.1414,1.1468,1.1469,1.1471,1.1486,1.1485,1.1484,1.1483,1.1557,1.156,1.1564,1.1604,0,0,1.1576,1.1577,0,0,0,0,0,0,0,0,1.1323,1.1332,1.1408,1.1411,1.1413,1.1467,1.1451,1.1515,1.1486,1.1458,1.1484,1.1483,1.1529,1.1535,1.155,1.1608,1.1611,1.1576,1.1578,1.158,1.1581,0,0,0,0,0,0,0,1.1319,1.1329,1.1423,1.1409,1.1412,1.1416,1.1424,1.1463,1.1497,1.1461,1.1462,1.1471,1.153,1.1547,1.1552,1.1612,1.1576,1.1579,1.1582,1.1583,1.1708,1.1709,0,0,0,0,0,0,1.1312,1.1325,1.1421,1.1425,1.1366,1.1419,1.1428,1.145,1.1497,1.1503,1.1471,1.1471,1.1541,1.1548,1.1555,1.1606,1.158,1.1583,1.1586,1.1707,1.1708,1.1709,0,0,0,0,0,0,1.1309,1.132,1.1418,1.1376,1.1388,1.1422,1.1447,1.1452,1.1469,1.1505,1.1511,1.1482,1.154,1.155,1.1592,1.1609,1.1585,1.1589,1.1706,1.1707,1.1709,1.1708,0,0,0,0,0,0,1.1305,1.1319,1.1334,1.1376,1.1391,1.1454,1.1448,1.1454,1.1476,1.1476,1.1517,1.1523,1.154,1.1587,1.1596,1.1613,1.1592,1.1704,1.1706,1.1708,1.1706,1.1709,1.1711,0,0,0,0,0,1.13,1.1331,1.1335,1.1347,1.1411,1.1455,1.1463,1.1483,1.1477,1.1493,1.1516,1.1522,1.1606,1.1591,1.1602,1.162,1.1703,1.1706,1.1708,1.1705,1.1708,1.1711,0,0,0,0,0,0,1.1289,1.1336,1.1342,1.1387,1.1417,1.1457,1.1478,1.1486,1.1518,1.1517,1.154,1.1549,1.159,1.161,1.1593,1.1662,1.1654,1.1659,1.1648,1.1652,1.1654,1.1648,1.1595,0,0,0,0,0,1.1292,1.1324,1.1364,1.1399,1.1414,1.1444,1.1464,1.1477,1.1509,1.1521,1.1547,1.1578,1.1611,1.1632,1.1665,1.1709,1.1719,1.1728,1.173,1.1732,1.1735,1.1761,1.1766,1.1717,1.1717,1.1717,0,0,1.1298,1.1328,1.1347,1.1398,1.1423,1.1456,1.1454,1.1489,1.1513,1.1526,1.1568,1.1589,1.1624,1.1668,1.1689,1.1686,1.1751,1.1735,1.1736,1.1739,1.1764,1.1768,1.1773,1.1719,1.1718,1.1718,0,0,1.1326,1.1352,1.1385,1.141,1.1448,1.1468,1.1476,1.1516,1.153,1.1573,1.1584,1.1613,1.167,1.1695,1.1716,1.1755,1.1761,1.1765,1.1777,1.1802,1.1806,1.1809,1.1823,1.1828,1.1768,1.1768,1.1768,0,1.1329,1.1379,1.1401,1.1435,1.1458,1.1472,1.1506,1.1529,1.1576,1.1591,1.1587,1.1659,1.1684,1.1734,1.1744,1.176,1.177,1.176,1.1803,1.1807,1.1811,1.1824,1.183,1.1769,1.1769,1.1768,1.1768,0,1.138,1.1415,1.1437,1.1483,1.1508,1.1541,1.1569,1.1591,1.1602,1.1622,1.1666,1.1697,1.1737,1.175,1.176,1.1802,1.1799,1.1799,1.1791,1.1815,1.1829,1.1834,1.1769,1.1769,1.1769,1.1769,0,0,1.1402,1.1461,1.1469,1.149,1.1534,1.1561,1.1596,1.1635,1.1654,1.1686,1.1716,1.1764,1.1765,1.1788,1.1802,1.1824,1.1853,1.1821,1.1822,1.1826,1.1901,1.1901,1.1907,1.1858,1.1859,1.186,1.1898,0,1.1436,1.1499,1.152,1.1572,1.1605,1.162,1.165,1.168,1.17,1.173,1.1752,1.1787,1.1785,1.1799,1.1821,1.1845,1.1869,1.1843,1.1886,1.1887,1.1876,1.1914,1.1913,1.1948,1.1904,1.1905,1.1905,0,1.1482,1.1516,1.1572,1.1613,1.1627,1.1654,1.1692,1.1721,1.1756,1.1769,1.1796,1.1808,1.1845,1.1836,1.1887,1.1869,1.1888,1.1903,1.1904,1.1909,1.1897,1.1919,1.1959,1.1964,1.1914,1.1913,1.1912,0,1.1493,1.1552,1.1594,1.1611,1.166,1.1678,1.1699,1.1734,1.1756,1.179,1.1805,1.1842,1.1862,1.1891,1.1913,1.1904,1.1963,1.1955,1.1974,1.1974,1.1986,1.1984,1.2029,1.1998,1.1998,1.1998,1.1998,0,1.1528,1.1561,1.1599,1.1624,1.1662,1.1687,1.1724,1.1746,1.1776,1.1806,1.1821,1.1849,1.1877,1.1908,1.1926,1.1966,1.1975,1.1987,1.1991,1.1985,1.1984,1.1997,1.1996,1.2,1.1999,1.1999,1.1999,0,1.1546,1.1572,1.1618,1.1661,1.1673,1.1699,1.1735,1.1761,1.1782,1.1819,1.183,1.1863,1.19,1.1926,1.1974,1.1986,1.203,1.2033,1.2018,1.202,1.2038,1.2036,1.2093,1.2102,1.2065,1.2066,1.2066,0,1.1566,1.1592,1.1638,1.166,1.1681,1.1715,1.1739,1.1764,1.1788,1.183,1.185,1.1889,1.1922,1.1981,1.201,1.2047,1.2052,1.2069,1.2057,1.2051,1.2052,1.205,1.2053,1.2071,1.2071,1.2071,1.2071,0,1.1599,1.1611,1.1645,1.1684,1.1712,1.1743,1.1775,1.1791,1.1822,1.1849,1.1888,1.1913,1.1963,1.2001,1.2042,1.2063,1.2072,1.2075,1.2082,1.2076,1.2066,1.2072,1.2023,1.2073,1.2073,1.2073,1.2073,1.2073,1.1619,1.1643,1.168,1.1717,1.1744,1.1773,1.1799,1.1824,1.1858,1.1901,1.1914,1.1955,1.1989,1.2044,1.2067,1.2099,1.2097,1.2107,1.2109,1.2111,1.2111,1.2061,1.2106,1.2106,1.2106,1.2106,1.2106,0,1.1653,1.1678,1.1712,1.1756,1.1786,1.1793,1.1829,1.1853,1.1889,1.1921,1.1953,1.1998,1.2036,1.2068,1.2107,1.2126,1.2132,1.2136,1.2134,1.2139,1.211,1.2101,1.2131,1.2131,1.2131,1.2131,1.2131,1.2131,1.1674,1.1716,1.1733,1.1788,1.1813,1.1853,1.1873,1.19,1.1926,1.1977,1.2008,1.2029,1.2061,1.2103,1.2138,1.2146,1.216,1.2163,1.2172,1.2144,1.2141,1.2139,1.213,1.2166,1.2166,1.2199,1.2199,1.22]}]]